EN

Hourly Weather Kyzylsharyk

Today, 28 July, Wednesday

Time Temperature Precipitation Wind Pressure Humidity
00:00 +26°C° 0 mm 3 mps 696 mmHg 45%
01:00 +26°C° 0 mm 3 mps 695 mmHg 45%
02:00 +25°C° 0 mm 2 mps 695 mmHg 45%
03:00 +26°C° 0 mm 2 mps 695 mmHg 44%
04:00 +26°C° 0 mm 3 mps 695 mmHg 43%
05:00 +26°C° 0 mm 3 mps 695 mmHg 42%
06:00 +28°C° 0 mm 3 mps 695 mmHg 39%
07:00 +29°C° 0 mm 4 mps 695 mmHg 35%
08:00 +32°C° 0 mm 4 mps 696 mmHg 31%
09:00 +33°C° 0 mm 5 mps 696 mmHg 30%
10:00 +34°C° 0 mm 5 mps 696 mmHg 28%
11:00 +35°C° 0 mm 6 mps 696 mmHg 27%
12:00 +36°C° 0.1 mm 6 mps 695 mmHg 27%
13:00 +36°C° 0.1 mm 6 mps 695 mmHg 27%
14:00 +36°C° 0.1 mm 7 mps 695 mmHg 26%
15:00 +36°C° 0 mm 7 mps 695 mmHg 26%
16:00 +35°C° 0 mm 6 mps 695 mmHg 26%
17:00 +35°C° 0 mm 6 mps 694 mmHg 26%
18:00 +33°C° 0 mm 5 mps 694 mmHg 28%
19:00 +29°C° 0 mm 4 mps 695 mmHg 31%
20:00 +27°C° 0 mm 3 mps 695 mmHg 34%
21:00 +27°C° 0 mm 3 mps 695 mmHg 35%
22:00 +26°C° 0 mm 3 mps 695 mmHg 37%
23:00 +26°C° 0 mm 3 mps 694 mmHg 39%

Tomorrow, 29 July, Thursday

Time Temperature Precipitation Wind Pressure Humidity
00:00 +25°C° 0 mm 3 mps 694 mmHg 40%
01:00 +25°C° 0 mm 3 mps 694 mmHg 41%
02:00 +24°C° 0 mm 3 mps 694 mmHg 41%
03:00 +24°C° 0 mm 3 mps 694 mmHg 42%
04:00 +23°C° 0 mm 2 mps 694 mmHg 43%
05:00 +23°C° 0 mm 2 mps 694 mmHg 44%
06:00 +25°C° 0 mm 2 mps 694 mmHg 38%
07:00 +27°C° 0 mm 2 mps 694 mmHg 33%
08:00 +29°C° 0 mm 2 mps 694 mmHg 28%
09:00 +30°C° 0 mm 3 mps 694 mmHg 25%
10:00 +33°C° 0 mm 3 mps 694 mmHg 23%
11:00 +34°C° 0 mm 3 mps 694 mmHg 21%
12:00 +35°C° 0 mm 4 mps 694 mmHg 20%
13:00 +36°C° 0 mm 4 mps 693 mmHg 20%
14:00 +37°C° 0 mm 5 mps 693 mmHg 19%
15:00 +37°C° 0 mm 5 mps 693 mmHg 19%
16:00 +36°C° 0 mm 6 mps 693 mmHg 18%
17:00 +36°C° 0 mm 6 mps 693 mmHg 18%
18:00 +34°C° 0 mm 5 mps 693 mmHg 21%
19:00 +32°C° 0 mm 5 mps 694 mmHg 25%
20:00 +30°C° 0 mm 4 mps 694 mmHg 28%
21:00 +28°C° 0 mm 4 mps 694 mmHg 33%
22:00 +27°C° 0 mm 4 mps 695 mmHg 37%
23:00 +26°C° 0 mm 4 mps 695 mmHg 42%

Day after tomorrow, 30 July, Friday

Time Temperature Precipitation Wind Pressure Humidity
00:00 +26°C° 0.1 mm 4 mps 695 mmHg 45%
01:00 +25°C° 0.1 mm 4 mps 695 mmHg 47%
02:00 +25°C° 0.1 mm 4 mps 695 mmHg 50%
03:00 +25°C° 0.2 mm 4 mps 696 mmHg 48%
04:00 +25°C° 0.2 mm 4 mps 696 mmHg 45%
05:00 +25°C° 0.2 mm 3 mps 696 mmHg 43%
06:00 +26°C° 0 mm 4 mps 697 mmHg 39%
07:00 +26°C° 0 mm 5 mps 698 mmHg 35%
08:00 +27°C° 0 mm 6 mps 699 mmHg 31%
09:00 +27°C° 0 mm 6 mps 699 mmHg 31%
10:00 +28°C° 0 mm 6 mps 700 mmHg 31%
11:00 +29°C° 0 mm 6 mps 700 mmHg 32%
12:00 +28°C° 0.1 mm 6 mps 700 mmHg 33%
13:00 +28°C° 0.1 mm 5 mps 700 mmHg 33%
14:00 +28°C° 0.1 mm 5 mps 700 mmHg 34%
15:00 +28°C° 0.1 mm 4 mps 700 mmHg 36%
16:00 +27°C° 0.1 mm 4 mps 700 mmHg 37%
17:00 +27°C° 0.1 mm 4 mps 700 mmHg 38%
18:00 +26°C° 0 mm 3 mps 700 mmHg 41%
19:00 +25°C° 0 mm 3 mps 700 mmHg 43%
20:00 +24°C° 0 mm 2 mps 700 mmHg 46%
21:00 +24°C° 0 mm 2 mps 700 mmHg 45%
22:00 +23°C° 0 mm 2 mps 700 mmHg 44%
23:00 +23°C° 0 mm 2 mps 700 mmHg 44%

31 July, Saturday

Time Temperature Precipitation Wind Pressure Humidity
00:00 +21°C° 0 mm 2 mps 700 mmHg 44%
01:00 +21°C° 0 mm 3 mps 700 mmHg 45%
02:00 +20°C° 0 mm 3 mps 700 mmHg 46%
03:00 +20°C° 0 mm 3 mps 700 mmHg 47%
04:00 +20°C° 0 mm 3 mps 700 mmHg 48%
05:00 +20°C° 0 mm 3 mps 700 mmHg 49%
06:00 +22°C° 0 mm 3 mps 701 mmHg 44%
07:00 +25°C° 0 mm 3 mps 701 mmHg 39%
08:00 +27°C° 0 mm 3 mps 701 mmHg 34%
09:00 +29°C° 0 mm 3 mps 701 mmHg 30%
10:00 +30°C° 0 mm 4 mps 701 mmHg 26%
11:00 +33°C° 0 mm 4 mps 700 mmHg 23%
12:00 +34°C° 0 mm 4 mps 700 mmHg 21%
13:00 +34°C° 0 mm 4 mps 700 mmHg 19%
14:00 +35°C° 0 mm 4 mps 699 mmHg 17%
15:00 +35°C° 0 mm 4 mps 699 mmHg 16%
16:00 +35°C° 0 mm 3 mps 699 mmHg 16%
17:00 +35°C° 0 mm 3 mps 699 mmHg 16%
18:00 +33°C° 0 mm 3 mps 699 mmHg 18%
19:00 +29°C° 0 mm 3 mps 699 mmHg 21%
20:00 +27°C° 0 mm 3 mps 699 mmHg 23%
21:00 +26°C° 0 mm 3 mps 698 mmHg 24%
22:00 +26°C° 0 mm 3 mps 698 mmHg 24%
23:00 +25°C° 0 mm 3 mps 698 mmHg 25%

1 August, Sunday

Time Temperature Precipitation Wind Pressure Humidity
00:00 +25°C° 0 mm 3 mps 698 mmHg 26%
01:00 +25°C° 0 mm 3 mps 698 mmHg 27%
02:00 +24°C° 0 mm 3 mps 697 mmHg 28%
03:00 +24°C° 0 mm 3 mps 697 mmHg 31%
04:00 +22°C° 0 mm 3 mps 697 mmHg 33%
05:00 +23°C° 0 mm 2 mps 698 mmHg 35%
06:00 +25°C° 0 mm 3 mps 698 mmHg 31%
07:00 +27°C° 0 mm 3 mps 698 mmHg 28%
08:00 +29°C° 0 mm 3 mps 698 mmHg 24%
09:00 +32°C° 0 mm 4 mps 698 mmHg 22%
10:00 +34°C° 0 mm 4 mps 698 mmHg 20%
11:00 +36°C° 0 mm 4 mps 698 mmHg 17%
12:00 +36°C° 0 mm 4 mps 697 mmHg 16%
13:00 +37°C° 0 mm 4 mps 697 mmHg 14%
14:00 +38°C° 0 mm 3 mps 697 mmHg 13%
15:00 +38°C° 0 mm 3 mps 696 mmHg 13%
16:00 +37°C° 0 mm 3 mps 696 mmHg 13%
17:00 +37°C° 0 mm 3 mps 696 mmHg 13%
18:00 +35°C° 0 mm 3 mps 696 mmHg 15%
19:00 +31°C° 0 mm 3 mps 696 mmHg 17%
20:00 +28°C° 0 mm 3 mps 696 mmHg 20%
21:00 +28°C° 0 mm 3 mps 696 mmHg 21%
22:00 +27°C° 0 mm 3 mps 696 mmHg 21%
23:00 +26°C° 0 mm 3 mps 696 mmHg 22%

2 August, Monday

Time Temperature Precipitation Wind Pressure Humidity
00:00 +26°C° 0 mm 3 mps 696 mmHg 23%
01:00 +25°C° 0 mm 3 mps 696 mmHg 24%
02:00 +25°C° 0 mm 3 mps 695 mmHg 25%
03:00 +25°C° 0 mm 3 mps 696 mmHg 25%
04:00 +24°C° 0 mm 2 mps 696 mmHg 25%
05:00 +24°C° 0 mm 2 mps 696 mmHg 25%
06:00 +26°C° 0 mm 2 mps 696 mmHg 22%
07:00 +28°C° 0 mm 2 mps 697 mmHg 19%
08:00 +30°C° 0 mm 2 mps 697 mmHg 16%
09:00 +32°C° 0 mm 2 mps 697 mmHg 15%
10:00 +34°C° 0 mm 2 mps 697 mmHg 13%
11:00 +36°C° 0 mm 3 mps 697 mmHg 12%
12:00 +37°C° 0 mm 3 mps 697 mmHg 12%
13:00 +38°C° 0 mm 3 mps 697 mmHg 11%
14:00 +40°C° 0 mm 4 mps 696 mmHg 11%
15:00 +38°C° 0 mm 4 mps 696 mmHg 10%
16:00 +38°C° 0 mm 4 mps 696 mmHg 10%
17:00 +38°C° 0 mm 4 mps 696 mmHg 10%
18:00 +35°C° 0 mm 4 mps 696 mmHg 12%
19:00 +33°C° 0 mm 4 mps 696 mmHg 14%
20:00 +29°C° 0 mm 3 mps 696 mmHg 15%
21:00 +28°C° 0 mm 3 mps 696 mmHg 16%
22:00 +28°C° 0 mm 4 mps 697 mmHg 17%
23:00 +27°C° 0 mm 4 mps 697 mmHg 18%
Show more